W8SZ Weather Reports


Display with metric or nautical units.
time (UTC)temp
F
wind
direction
speed
MPH
gust
MPH
rain 1hr
in
rain 24hr
in
rain mn
in
humidity
%
barometer
mb
20210918192857 65 80 0.0 0.0 0.00 0.00 0.00 75 1023.2
20210918192356 65 75 0.0 0.0 0.00 0.00 0.00 74 1022.8
20210918191858 65 64 0.0 0.0 0.00 0.00 0.00 74 1023.0
20210918191344 65 86 0.0 0.0 0.00 0.00 0.00 77 1023.3
20210918190846 65 67 0.0 0.0 0.00 0.00 0.00 72 1023.2
20210918190405 65 77 0.0 0.0 0.00 0.00 0.00 73 1023.3
20210918185849 65 75 0.0 0.0 0.00 0.00 0.00 74 1022.9
20210918185354 65 53 0.0 0.0 0.00 0.00 0.00 73 1023.3
20210918184858 65 72 0.0 0.0 0.00 0.00 0.00 72 1023.7
20210918184341 66 58 0.0 0.0 0.00 0.00 0.00 73 1023.4
20210918183904 66 64 0.0 0.0 0.00 0.00 0.00 73 1024.2
20210918183350 66 59 0.0 0.0 0.00 0.00 0.00 72 1023.3
20210918182851 66 56 0.0 0.0 0.00 0.00 0.00 71 1023.9
20210918182352 66 66 0.0 0.0 0.00 0.00 0.00 72 1023.5
20210918181854 66 47 0.0 0.0 0.00 0.00 0.00 70 1023.9
20210918181338 66 47 0.0 0.0 0.00 0.00 0.00 69 1024.4
20210918180843 66 46 0.0 0.0 0.00 0.00 0.00 70 1024.3
20210918180401 66 61 0.0 0.0 0.00 0.00 0.00 71 1023.7
20210918175846 66 54 0.0 0.0 0.00 0.00 0.00 74 1024.3
20210918175347 66 49 0.0 0.0 0.00 0.00 0.00 74 1024.0
20210918174847 66 60 0.0 0.0 0.00 0.00 0.00 73 1023.9
20210918174347 66 50 0.0 0.0 0.00 0.00 0.00 72 1023.9
20210918173856 66 39 0.0 0.0 0.00 0.00 0.00 71 1023.8
20210918173346 66 43 0.0 0.0 0.00 0.00 0.00 74 1023.9
20210918172832 66 56 0.0 0.0 0.00 0.00 0.00 74 1023.6
20210918172338 66 63 0.0 0.0 0.00 0.00 0.00 73 1024.3
20210918171843 66 51 0.0 0.0 0.00 0.00 0.00 74 1024.1
20210918171343 66 36 0.0 0.0 0.00 0.00 0.00 75 1024.3
20210918170843 66 55 0.0 0.0 0.00 0.00 0.00 76 1023.9
20210918170343 66 34 0.0 0.0 0.00 0.00 0.00 75 1024.1
20210918165834 66 33 0.0 0.0 0.00 0.00 0.00 74 1025.0
20210918165334 66 43 0.0 0.0 0.00 0.00 0.00 74 1024.2
20210918164833 66 53 0.0 0.0 0.00 0.00 0.00 74 1023.7
20210918164339 66 45 0.0 0.0 0.00 0.00 0.00 77 1024.4
20210918163839 66 53 0.0 0.0 0.00 0.00 0.00 75 1023.7
20210918163345 66 46 0.0 0.0 0.00 0.00 0.00 76 1023.7
20210918162836 66 38 0.0 0.0 0.00 0.00 0.00 76 1023.9
20210918162336 66 56 0.0 0.0 0.00 0.00 0.00 75 1024.2
20210918161836 66 56 0.0 0.0 0.00 0.00 0.00 76 1024.7
20210918161320 66 39 0.0 0.0 0.00 0.00 0.00 76 1023.9
20210918160848 66 57 0.0 0.0 0.00 0.00 0.00 76 1024.6
20210918160339 66 47 0.0 0.0 0.00 0.00 0.00 76 1024.3
20210918155842 66 36 0.0 0.0 0.00 0.00 0.00 76 1024.5
20210918155435 66 30 0.0 0.0 0.00 0.00 0.00 77 1024.7
20210918154939 66 52 0.0 0.0 0.00 0.00 0.00 77 1024.4
20210918154438 66 42 0.0 0.0 0.00 0.00 0.00 77 1024.4
20210918153927 66 53 0.0 0.0 0.00 0.00 0.00 78 1024.7
20210918153447 66 53 0.0 0.0 0.00 0.00 0.00 77 1024.2
20210918152922 66 47 0.0 0.0 0.00 0.00 0.00 77 1024.5
20210918152427 66 52 0.0 0.0 0.00 0.00 0.00 77 1023.9
20210918151926 66 48 0.0 0.0 0.00 0.00 0.00 80 1024.3
20210918151431 66 43 0.0 0.0 0.00 0.00 0.00 77 1024.4
20210918150932 65 46 0.0 0.0 0.00 0.00 0.00 77 1024.5
20210918150453 65 47 0.0 0.0 0.00 0.00 0.00 78 1024.3
20210918145937 65 48 0.0 0.0 0.00 0.00 0.00 79 1024.4
20210918145422 65 56 0.0 0.0 0.00 0.00 0.00 80 1024.5
20210918144922 65 49 0.0 0.0 0.00 0.00 0.00 82 1024.1
20210918144424 65 39 0.0 0.0 0.00 0.00 0.00 80 1024.2
20210918143931 65 40 0.0 0.0 0.00 0.00 0.00 83 1024.1
20210918143433 64 40 0.0 0.0 0.00 0.00 0.00 83 1024.4
20210918142923 64 32 0.0 0.0 0.00 0.00 0.00 82 1024.1
20210918142425 64 50 0.0 0.0 0.00 0.00 0.00 87 1024.0
20210918141924 63 44 0.0 0.0 0.00 0.00 0.00 87 1024.3
20210918141430 63 57 0.0 0.0 0.00 0.00 0.00 86 1023.9
20210918140927 63 48 0.0 0.0 0.00 0.00 0.00 88 1023.8
20210918140426 63 27 0.0 0.0 0.00 0.00 0.00 88 1023.5
20210918135919 63 33 0.0 0.0 0.00 0.00 0.00 87 1023.3
20210918135420 63 37 0.0 0.0 0.00 0.00 0.00 88 1024.0
20210918134922 62 37 0.0 0.0 0.00 0.00 0.00 90 1023.6
20210918134424 62 34 0.0 0.0 0.00 0.00 0.00 89 1023.6
20210918133927 62 34 0.0 0.0 0.00 0.00 0.00 92 1023.7
20210918133430 61 48 0.0 0.0 0.00 0.00 0.00 92 1023.5
20210918132918 60 47 0.0 0.0 0.00 0.00 0.00 95 1023.3
20210918132421 60 29 0.0 0.0 0.00 0.00 0.00 96 1023.1
20210918131922 59 42 0.0 0.0 0.00 0.00 0.00 97 1023.0
20210918131422 59 29 0.0 0.0 0.00 0.00 0.00 97 1023.4
20210918130925 59 0 0.0 0.0 0.00 0.00 0.00 97 1022.8
20210918130427 59 26 0.0 0.0 0.00 0.00 0.00 97 1023.3
20210918125917 59 31 0.0 0.0 0.00 0.00 0.00 97 1023.2
20210918125419 59 24 0.0 0.0 0.00 0.00 0.00 97 1023.3
20210918124917 59 30 0.0 0.0 0.00 0.00 0.00 98 1023.2
20210918124418 58 17 0.0 0.0 0.00 0.00 0.00 97 1022.9
20210918123918 58 15 0.0 0.0 0.00 0.00 0.00 98 1022.9
20210918123421 57 356 0.0 0.0 0.00 0.00 0.00 99 1023.3
20210918122922 56 7 0.0 0.0 0.00 0.00 0.00 100 1022.9
20210918122404 56 0 0.0 0.0 0.00 0.00 0.00 100 1023.4
20210918121856 55 326 0.0 0.0 0.00 0.00 0.00 100 1022.8
20210918121406 54 312 0.0 0.0 0.00 0.00 0.00 100 1023.2
20210918120855 54 309 0.0 0.0 0.00 0.00 0.00 100 1023.2
20210918120406 54 5 0.0 0.0 0.00 0.00 0.00 100 1023.2
20210918115920 53 5 0.0 0.0 0.00 0.00 0.00 100 1023.7
20210918115358 53 5 0.0 0.0 0.00 0.00 0.00 100 1023.1
20210918114904 53 5 0.0 0.0 0.00 0.00 0.00 100 1022.9
20210918114407 53 308 0.0 0.0 0.00 0.00 0.00 100 1023.3
20210918113852 52 308 0.0 0.0 0.00 0.00 0.00 100 1023.0
20210918113404 52 280 0.0 0.0 0.00 0.00 0.00 100 1023.0
20210918112901 52 279 0.0 0.0 0.00 0.00 0.00 100 1022.9
20210918112351 52 277 0.0 0.0 0.00 0.00 0.00 100 1022.9
20210918111901 52 270 0.0 0.0 0.00 0.00 0.00 100 1022.8
20210918111350 52 271 0.0 0.0 0.00 0.00 0.00 100 1022.8
20210918110900 52 270 0.0 0.0 0.00 0.00 0.00 100 1023.1
20210918110411 52 0 0.0 0.0 0.00 0.00 0.00 100 1022.8
20210918105907 52 0 0.0 0.0 0.00 0.00 0.00 100 1022.7
20210918105352 52 0 0.0 0.0 0.00 0.00 0.00 100 1022.4
20210918104856 52 0 0.0 0.0 0.00 0.00 0.00 100 1023.3
20210918104358 52 0 0.0 0.0 0.00 0.00 0.00 100 1023.2
20210918103859 52 0 0.0 0.0 0.00 0.00 0.00 100 1022.9
20210918103401 52 0 0.0 0.0 0.00 0.00 0.00 100 1022.2
20210918102850 52 0 0.0 0.0 0.00 0.00 0.00 100 1023.0
20210918102354 52 0 0.0 0.0 0.00 0.00 0.00 100 1022.3
20210918101900 52 0 0.0 0.0 0.00 0.00 0.00 100 1022.6
20210918101402 52 0 0.0 0.0 0.00 0.00 0.00 100 1022.9
20210918100901 53 7 0.0 0.0 0.00 0.00 0.00 100 1022.0
20210918100405 53 7 0.0 0.0 0.00 0.00 0.00 100 1022.1
20210918095851 53 7 0.0 0.0 0.00 0.00 0.00 100 1022.0
20210918095353 53 6 0.0 0.0 0.00 0.00 0.00 100 1022.0
20210918094900 53 7 0.0 0.0 0.00 0.00 0.00 100 1021.8
20210918094402 53 6 0.0 0.0 0.00 0.00 0.00 100 1021.4
20210918093843 53 7 0.0 0.0 0.00 0.00 0.00 99 1022.4
20210918093406 53 7 0.0 0.0 0.00 0.00 0.00 99 1021.9
20210918092855 53 7 0.0 0.0 0.00 0.00 0.00 99 1021.4
20210918092355 54 7 0.0 0.0 0.00 0.00 0.00 99 1021.9
20210918091857 54 13 0.0 0.0 0.00 0.00 0.00 98 1022.0
20210918091359 54 13 0.0 0.0 0.00 0.00 0.00 98 1021.8
20210918090844 54 14 0.0 0.0 0.00 0.00 0.00 98 1022.1
20210918090405 54 41 0.0 0.0 0.00 0.00 0.00 97 1021.7
20210918085834 54 359 0.0 0.0 0.00 0.00 0.00 97 1021.9
20210918085345 54 331 0.0 0.0 0.00 0.00 0.00 96 1021.8
20210918084835 54 308 0.0 0.0 0.00 0.00 0.00 95 1021.6
20210918084344 54 308 0.0 0.0 0.00 0.00 0.00 95 1021.8
20210918083855 55 19 0.0 0.0 0.00 0.00 0.00 95 1021.7
20210918083356 55 11 0.0 0.0 0.00 0.00 0.00 94 1021.7
20210918082846 55 281 0.0 0.0 0.00 0.00 0.00 94 1021.6
20210918082351 55 18 0.0 0.0 0.00 0.00 0.00 93 1021.6
20210918081832 55 353 0.0 0.0 0.00 0.00 0.00 92 1021.7
20210918081342 55 20 0.0 0.0 0.00 0.00 0.00 92 1021.5
20210918080842 55 19 0.0 0.0 0.00 0.00 0.00 91 1021.6
20210918080348 55 0 0.0 0.0 0.00 0.00 0.00 91 1021.2
20210918075842 56 31 0.0 0.0 0.00 0.00 0.00 90 1021.6
20210918075342 56 22 0.0 0.0 0.00 0.00 0.00 90 1021.3
20210918074845 56 3 0.0 0.0 0.00 0.00 0.00 90 1021.4
20210918074343 56 23 0.0 0.0 0.00 0.00 0.00 89 1021.4
20210918073846 56 27 0.0 0.0 0.00 0.00 0.00 88 1021.5
20210918073351 56 4 0.0 0.0 0.00 0.00 0.00 88 1021.6
20210918072842 56 21 0.0 0.0 0.00 0.00 0.00 88 1021.1
20210918072345 56 18 0.0 0.0 0.00 0.00 0.00 87 1020.9
20210918071846 57 34 0.0 0.0 0.00 0.00 0.00 87 1021.5
20210918071330 57 0 0.0 0.0 0.00 0.00 0.00 86 1021.1
20210918070833 57 4 0.0 0.0 0.00 0.00 0.00 85 1021.1
20210918070357 57 31 0.0 0.0 0.00 0.00 0.00 85 1021.5
20210918065827 57 18 0.0 0.0 0.00 0.00 0.00 85 1021.3
20210918065331 57 43 0.0 0.0 0.00 0.00 0.00 84 1021.0
20210918064839 58 20 0.0 0.0 0.00 0.00 0.00 83 1021.6
20210918064343 58 18 0.0 0.0 0.00 0.00 0.00 83 1020.7
20210918063828 58 35 0.0 0.0 0.00 0.00 0.00 82 1021.0
20210918063346 58 5 0.0 0.0 0.00 0.00 0.00 82 1020.7
20210918062838 58 9 0.0 0.0 0.00 0.00 0.00 82 1020.7
20210918062338 58 90 0.0 0.0 0.00 0.00 0.00 80 1021.0
20210918061838 59 21 0.0 0.0 0.00 0.00 0.00 81 1020.9
20210918061341 59 20 0.0 0.0 0.00 0.00 0.00 80 1021.0
20210918060820 59 0 0.0 0.0 0.00 0.00 0.00 79 1021.1
20210918060346 59 11 0.0 0.0 0.00 0.00 0.00 79 1020.8
20210918055836 59 25 0.0 0.0 0.00 0.00 0.00 79 1020.4
20210918055439 59 7 0.0 0.0 0.00 0.00 0.00 79 1020.7
20210918054943 59 29 0.0 0.0 0.00 0.00 0.00 78 1020.5
20210918054427 59 19 0.0 0.0 0.00 0.00 0.00 78 1020.4
20210918053926 59 3 0.0 0.0 0.00 0.00 0.00 78 1020.5
20210918053435 59 141 0.0 0.0 0.00 0.00 0.00 78 1020.1
20210918052928 60 1 0.0 0.0 0.00 0.00 0.00 77 1020.3
20210918052414 60 1 0.0 0.0 0.00 0.00 0.00 77 1020.2
20210918051922 60 2 0.0 0.0 0.00 0.00 0.00 77 1019.9
20210918051422 60 7 0.0 0.0 0.00 0.00 0.00 77 1019.9
20210918050925 60 28 0.0 0.0 0.00 0.00 0.00 76 1020.4
20210918050432 61 25 0.0 0.0 0.00 0.00 0.00 76 1019.9
20210918045924 61 25 0.0 0.0 0.00 0.00 0.00 76 1019.9
20210918045427 61 328 0.0 0.0 0.00 0.00 0.00 77 1019.8
20210918044931 61 23 0.0 0.0 0.00 0.00 0.00 76 1019.8
20210918044435 61 19 0.0 0.0 0.00 0.00 0.00 75 1020.0
20210918043938 61 8 0.0 0.0 0.00 0.00 0.00 75 1019.4
20210918043439 61 34 0.0 0.0 0.00 0.00 0.00 75 1019.6
20210918042925 62 20 0.0 0.0 0.00 0.00 0.00 77 1019.6
20210918042427 62 30 0.0 0.0 0.00 0.00 0.00 78 1019.9
20210918041927 62 5 0.0 0.0 0.00 0.00 0.00 79 1019.6
20210918041430 62 2 0.0 0.0 0.00 0.00 0.00 81 1019.4
20210918040913 62 21 0.0 0.0 0.00 0.00 0.00 83 1019.2
20210918040438 62 24 0.0 0.0 0.00 0.00 0.00 84 1019.2
20210918035928 62 25 0.0 0.0 0.00 0.00 0.00 84 1019.0
20210918035412 62 11 0.0 0.0 0.00 0.00 0.00 85 1019.3
20210918034913 62 16 0.0 0.0 0.00 0.00 0.00 86 1019.3
20210918034415 62 39 0.0 0.0 0.00 0.00 0.00 86 1018.6
20210918033917 62 4 0.0 0.0 0.00 0.00 0.00 87 1018.7
20210918033423 63 19 0.0 0.0 0.00 0.00 0.00 88 1019.1
20210918032912 63 192 0.0 0.0 0.00 0.00 0.00 89 1018.8
20210918032416 63 13 0.0 0.0 0.00 0.00 0.00 90 1019.0
20210918031919 63 23 0.0 0.0 0.00 0.00 0.00 90 1018.8
20210918031422 63 35 0.0 0.0 0.00 0.00 0.00 91 1018.8
20210918030908 63 20 0.0 0.0 0.00 0.00 0.00 91 1018.7
20210918030430 63 49 0.0 0.0 0.00 0.00 0.00 91 1018.8
20210918025906 63 42 0.0 0.0 0.00 0.00 0.00 91 1018.1
20210918025412 64 26 0.0 0.0 0.00 0.00 0.00 91 1019.0
20210918024915 64 27 0.0 0.0 0.00 0.00 0.00 90 1018.7
20210918024414 64 16 0.0 0.0 0.00 0.00 0.00 90 1018.5
20210918023916 64 35 0.0 0.0 0.00 0.00 0.00 90 1018.6
20210918023418 64 35 0.0 0.0 0.00 0.00 0.00 90 1018.5
20210918022910 65 28 0.0 0.0 0.00 0.00 0.00 89 1018.8
20210918022412 65 337 0.0 0.0 0.00 0.00 0.00 89 1018.5
20210918021916 65 32 0.0 0.0 0.00 0.00 0.00 89 1018.0
20210918021418 65 11 0.0 0.0 0.00 0.00 0.00 88 1018.2
20210918020900 66 2 0.0 0.0 0.00 0.00 0.00 89 1017.9
20210918020421 66 14 0.0 0.0 0.00 0.00 0.00 91 1017.9
20210918015912 66 359 0.0 0.0 0.00 0.00 0.00 94 1018.4
20210918015359 66 14 0.0 0.0 0.00 0.00 0.00 96 1017.5
20210918014901 67 37 0.0 0.0 0.00 0.00 0.00 98 1017.9
20210918014402 67 205 0.0 0.0 0.00 0.00 0.00 100 1017.7
20210918013909 67 37 0.0 0.0 0.00 0.00 0.00 100 1017.2
20210918013414 67 28 0.0 0.0 0.00 0.00 0.00 100 1017.1
20210918012906 67 26 0.0 0.0 0.00 0.00 0.00 100 1017.1
20210918012408 68 30 0.0 0.0 0.00 0.00 0.00 100 1017.0
20210918011908 68 31 0.0 0.0 0.00 0.00 0.00 100 1017.3
20210918011412 68 28 0.0 0.0 0.00 0.00 0.00 100 1017.5
20210918010855 69 29 0.0 0.0 0.00 0.00 0.00 100 1017.3
20210918010420 69 23 0.0 0.0 0.00 0.00 0.00 100 1017.6
20210918005907 69 39 0.0 0.0 0.00 0.00 0.00 100 1017.1
20210918005351 69 24 0.0 0.0 0.00 0.00 0.00 100 1016.7
20210918004853 69 24 0.0 0.0 0.00 0.00 0.00 100 1016.9
20210918004356 69 24 0.0 0.0 0.00 0.00 0.00 100 1016.7
20210918003856 69 24 0.0 0.0 0.00 0.00 0.00 100 1016.4
20210918003400 70 37 0.0 0.0 0.00 0.00 0.00 100 1016.0
20210918002856 70 36 0.0 0.0 0.00 0.00 0.00 99 1016.2
20210918002355 70 31 0.0 0.0 0.00 0.00 0.00 98 1016.1
20210918001858 70 26 0.0 0.0 0.00 0.00 0.00 96 1016.2
20210918001401 71 31 0.0 0.0 0.00 0.00 0.00 96 1016.3
20210918000903 71 35 0.0 0.0 0.00 0.00 0.00 95 1016.0
20210918000408 71 14 0.0 0.0 0.00 0.00 0.00 97 1015.5
20210917235854 71 235 0.0 0.0 0.00 0.00 0.00 97 1016.0
20210917235343 71 235 0.0 0.0 0.00 0.00 0.00 96 1014.9
20210917234852 71 235 0.0 0.0 0.00 0.00 0.00 95 1015.3
20210917234341 71 235 0.0 0.0 0.00 0.00 0.00 96 1015.9
20210917233845 72 235 0.0 0.0 0.00 0.00 0.00 95 1015.4
20210917233355 72 235 0.0 0.0 0.00 0.00 0.00 94 1015.0
20210917232854 72 235 0.0 0.0 0.00 0.00 0.00 93 1015.0
20210917232342 72 235 0.0 0.0 0.00 0.00 0.00 92 1015.1
20210917231851 73 235 0.0 0.0 0.00 0.00 0.00 91 1014.8
20210917231342 73 234 0.0 0.0 0.00 0.00 0.00 91 1014.9
20210917230852 73 235 0.0 0.0 0.00 0.00 0.00 91 1015.2
20210917230400 74 235 0.0 0.0 0.00 0.00 0.00 90 1014.6
20210917225839 74 235 0.0 0.0 0.00 0.00 0.00 89 1014.7
20210917225346 74 235 0.0 0.0 0.00 0.00 0.00 88 1014.7
20210917224833 75 227 0.0 0.0 0.00 0.00 0.00 86 1014.7
20210917224343 75 235 0.0 0.0 0.00 0.00 0.00 85 1014.8
20210917223831 75 229 0.0 0.0 0.00 0.00 0.00 82 1014.1
20210917223341 76 248 0.0 0.0 0.00 0.00 0.00 83 1014.1
20210917222839 75 227 0.0 0.0 0.00 0.00 0.00 82 1013.8
20210917222347 76 200 0.0 0.0 0.00 0.00 0.00 85 1014.2
20210917221833 76 234 0.0 0.0 0.00 0.00 0.00 83 1014.3
20210917221343 76 238 0.0 0.0 0.00 0.00 0.00 82 1014.3
20210917220833 76 222 0.0 0.0 0.00 0.00 0.00 82 1014.4
20210917220343 77 233 0.0 0.0 0.00 0.00 0.00 80 1014.1
20210917215839 77 245 0.0 0.0 0.00 0.00 0.00 79 1014.4
20210917215327 76 229 0.0 0.0 0.00 0.00 0.00 80 1014.7
20210917214836 76 223 0.0 0.0 0.00 0.00 0.00 80 1014.4
20210917214325 76 224 0.0 0.0 0.00 0.00 0.00 82 1015.2
20210917213835 75 238 0.0 0.0 0.00 0.00 0.00 85 1014.4
20210917213344 75 220 0.0 0.0 0.00 0.00 0.00 85 1014.9
20210917212843 75 231 0.0 0.0 0.00 0.00 0.00 87 1015.2
20210917212332 75 209 0.0 0.0 0.00 0.00 0.00 88 1014.5
20210917211822 74 213 0.0 0.0 0.00 0.00 0.00 87 1015.0
20210917211333 74 210 0.0 0.0 0.00 0.00 0.00 89 1014.5
20210917210823 74 225 0.0 0.0 0.00 0.00 0.00 92 1014.5
20210917210332 74 222 0.0 0.0 0.00 0.00 0.00 92 1014.6
20210917205830 74 224 0.0 0.0 0.00 0.00 0.00 93 1014.4
20210917205336 74 200 0.0 0.0 0.00 0.00 0.00 93 1014.2
20210917204823 74 199 0.0 0.0 0.00 0.00 0.00 91 1014.7
20210917204330 74 205 0.0 0.0 0.00 0.00 0.00 91 1014.0
20210917203835 74 199 0.0 0.0 0.00 0.00 0.00 91 1014.3
20210917203344 73 192 0.0 0.0 0.00 0.00 0.00 94 1014.5
20210917202820 73 218 0.0 0.0 0.00 0.00 0.00 97 1013.4
20210917202328 73 195 0.0 0.0 0.00 0.00 0.00 96 1013.0
20210917201830 73 198 0.0 0.0 0.00 0.00 0.00 96 1013.6
20210917201319 73 198 0.0 0.0 0.00 0.00 0.00 96 1013.9
20210917200824 73 195 0.0 0.0 0.00 0.00 0.00 96 1013.4
20210917200333 73 209 0.0 0.0 0.00 0.00 0.00 96 1013.4
20210917195832 73 202 0.0 0.0 0.00 0.00 0.00 96 1014.1
20210917195418 74 197 0.0 0.0 0.00 0.00 0.00 96 1014.0
20210917194925 74 205 0.0 0.0 0.00 0.00 0.00 96 1013.7
20210917194434 74 201 0.0 0.0 0.00 0.00 0.00 95 1014.2
20210917193924 74 201 0.0 0.0 0.00 0.00 0.00 96 1014.2
20210917193430 73 201 0.0 0.0 0.00 0.00 0.00 96 1013.9